• Em Portugal
  • Lista de países
  • Para 7 dias
  • Temperatura da água
  • Mapas de satélite
  • Mapa do tempo
  • Widgets de tempo
  • user-avatar
    Iniciar Sessão

    Previsão horária em Mauritius

    Hoje, 18 Fevereiro, Domingo

    Tempo Temperatura Precipitação Vento Pressão Humidade
    00:00 +26°C° 0,3 mm 3 m/s 723 mmHg 80%
    01:00 +26°C° 0,3 mm 3 m/s 722 mmHg 81%
    02:00 +26°C° 0 mm 3 m/s 722 mmHg 81%
    03:00 +26°C° 0 mm 3 m/s 722 mmHg 81%
    04:00 +26°C° 0 mm 4 m/s 722 mmHg 82%
    05:00 +26°C° 0 mm 4 m/s 722 mmHg 82%
    06:00 +26°C° 0 mm 4 m/s 722 mmHg 82%
    07:00 +26°C° 0 mm 4 m/s 722 mmHg 82%
    08:00 +27°C° 0,1 mm 4 m/s 722 mmHg 80%
    09:00 +27°C° 0,1 mm 4 m/s 722 mmHg 77%
    10:00 +28°C° 0,1 mm 4 m/s 722 mmHg 75%
    11:00 +28°C° 0,5 mm 4 m/s 722 mmHg 75%
    12:00 +29°C° 0,5 mm 4 m/s 722 mmHg 74%
    13:00 +29°C° 0,5 mm 4 m/s 722 mmHg 73%
    14:00 +29°C° 0,4 mm 4 m/s 722 mmHg 73%
    15:00 +29°C° 0,4 mm 4 m/s 721 mmHg 74%
    16:00 +28°C° 0,4 mm 4 m/s 721 mmHg 75%
    17:00 +28°C° 0,3 mm 4 m/s 721 mmHg 77%
    18:00 +27°C° 0,3 mm 4 m/s 722 mmHg 79%
    19:00 +27°C° 0,3 mm 4 m/s 722 mmHg 81%
    20:00 +27°C° 0,3 mm 4 m/s 722 mmHg 82%
    21:00 +27°C° 0,3 mm 4 m/s 722 mmHg 83%
    22:00 +26°C° 0,3 mm 4 m/s 722 mmHg 84%
    23:00 +26°C° 0,1 mm 4 m/s 722 mmHg 84%

    Amanhã, 19 Fevereiro, Segunda-feira

    Tempo Temperatura Precipitação Vento Pressão Humidade
    00:00 +26°C° 0,1 mm 4 m/s 722 mmHg 84%
    01:00 +26°C° 0,1 mm 4 m/s 721 mmHg 84%
    02:00 +26°C° 0 mm 4 m/s 721 mmHg 84%
    03:00 +26°C° 0 mm 4 m/s 721 mmHg 84%
    04:00 +26°C° 0 mm 4 m/s 720 mmHg 83%
    05:00 +26°C° 0,6 mm 4 m/s 721 mmHg 84%
    06:00 +26°C° 0,6 mm 4 m/s 721 mmHg 84%
    07:00 +26°C° 0,6 mm 4 m/s 721 mmHg 84%
    08:00 +27°C° 0,5 mm 4 m/s 721 mmHg 81%
    09:00 +28°C° 0,5 mm 4 m/s 722 mmHg 78%
    10:00 +28°C° 0,5 mm 4 m/s 722 mmHg 75%
    11:00 +28°C° 1,6 mm 4 m/s 722 mmHg 75%
    12:00 +28°C° 1,6 mm 3 m/s 721 mmHg 75%
    13:00 +28°C° 1,6 mm 3 m/s 721 mmHg 75%
    14:00 +28°C° 0,3 mm 3 m/s 721 mmHg 75%
    15:00 +28°C° 0,3 mm 3 m/s 720 mmHg 75%
    16:00 +28°C° 0,3 mm 3 m/s 720 mmHg 75%
    17:00 +27°C° 1,6 mm 3 m/s 720 mmHg 78%
    18:00 +27°C° 1,6 mm 2 m/s 720 mmHg 80%
    19:00 +26°C° 1,6 mm 2 m/s 721 mmHg 83%
    20:00 +26°C° 2,1 mm 2 m/s 721 mmHg 82%
    21:00 +26°C° 2,1 mm 2 m/s 722 mmHg 81%
    22:00 +26°C° 2,1 mm 2 m/s 722 mmHg 80%
    23:00 +26°C° 0,6 mm 2 m/s 722 mmHg 81%

    Depois de amanhã, 20 Fevereiro, Terça-feira

    Tempo Temperatura Precipitação Vento Pressão Humidade
    00:00 +26°C° 0,6 mm 2 m/s 721 mmHg 81%
    01:00 +26°C° 0,6 mm 2 m/s 721 mmHg 82%
    02:00 +26°C° 0,5 mm 3 m/s 720 mmHg 82%
    03:00 +26°C° 0,5 mm 3 m/s 720 mmHg 82%
    04:00 +25°C° 0,5 mm 3 m/s 720 mmHg 82%
    05:00 +26°C° 0,7 mm 4 m/s 720 mmHg 82%
    06:00 +26°C° 0,7 mm 4 m/s 720 mmHg 82%
    07:00 +26°C° 0,7 mm 4 m/s 721 mmHg 81%
    08:00 +26°C° 0,5 mm 5 m/s 721 mmHg 81%
    09:00 +27°C° 0,5 mm 5 m/s 721 mmHg 80%
    10:00 +28°C° 0,5 mm 5 m/s 721 mmHg 79%
    11:00 +28°C° 0,8 mm 5 m/s 721 mmHg 77%
    12:00 +28°C° 0,8 mm 4 m/s 721 mmHg 75%
    13:00 +28°C° 0,8 mm 4 m/s 720 mmHg 73%
    14:00 +28°C° 2,4 mm 3 m/s 720 mmHg 75%
    15:00 +27°C° 2,4 mm 2 m/s 720 mmHg 77%
    16:00 +26°C° 2,4 mm 1 m/s 719 mmHg 78%
    17:00 +26°C° 0,8 mm 2 m/s 720 mmHg 79%
    18:00 +26°C° 0,8 mm 2 m/s 720 mmHg 81%
    19:00 +26°C° 0,8 mm 3 m/s 720 mmHg 82%
    20:00 +26°C° 0,1 mm 3 m/s 721 mmHg 82%
    21:00 +26°C° 0,1 mm 3 m/s 721 mmHg 81%
    22:00 +26°C° 0,1 mm 4 m/s 721 mmHg 81%
    23:00 +26°C° 0,3 mm 4 m/s 721 mmHg 81%

    21 Fevereiro, Quarta-feira

    Tempo Temperatura Precipitação Vento Pressão Humidade
    00:00 +26°C° 0,3 mm 4 m/s 721 mmHg 81%
    01:00 +26°C° 0,3 mm 3 m/s 720 mmHg 81%
    02:00 +26°C° 0,8 mm 3 m/s 720 mmHg 82%
    03:00 +26°C° 0,8 mm 3 m/s 720 mmHg 82%
    04:00 +26°C° 0,8 mm 3 m/s 719 mmHg 83%
    05:00 +26°C° 2 mm 3 m/s 720 mmHg 82%
    06:00 +26°C° 2 mm 3 m/s 720 mmHg 82%
    07:00 +26°C° 2 mm 3 m/s 720 mmHg 82%
    08:00 +26°C° 1,1 mm 3 m/s 721 mmHg 81%
    09:00 +27°C° 1,1 mm 4 m/s 721 mmHg 80%
    10:00 +27°C° 1,1 mm 4 m/s 721 mmHg 78%
    11:00 +28°C° 0,1 mm 4 m/s 721 mmHg 74%
    12:00 +29°C° 0,1 mm 3 m/s 720 mmHg 71%
    13:00 +30°C° 0,1 mm 3 m/s 720 mmHg 67%
    14:00 +29°C° 0,5 mm 3 m/s 720 mmHg 68%
    15:00 +29°C° 0,5 mm 3 m/s 720 mmHg 69%
    16:00 +29°C° 0,5 mm 3 m/s 719 mmHg 70%
    17:00 +28°C° 1,2 mm 2 m/s 720 mmHg 73%
    18:00 +28°C° 1,2 mm 2 m/s 720 mmHg 75%
    19:00 +27°C° 1,2 mm 2 m/s 720 mmHg 78%
    20:00 +27°C° 1,2 mm 2 m/s 720 mmHg 79%
    21:00 +27°C° 1,2 mm 2 m/s 721 mmHg 80%
    22:00 +27°C° 1,2 mm 3 m/s 721 mmHg 81%
    23:00 +26°C° 0,6 mm 3 m/s 721 mmHg 81%

    22 Fevereiro, Quinta-feira

    Tempo Temperatura Precipitação Vento Pressão Humidade
    00:00 +26°C° 0,6 mm 3 m/s 720 mmHg 81%
    01:00 +26°C° 0,6 mm 3 m/s 720 mmHg 80%
    02:00 +26°C° 0,5 mm 4 m/s 720 mmHg 80%
    03:00 +26°C° 0,5 mm 4 m/s 719 mmHg 80%
    04:00 +26°C° 0,5 mm 4 m/s 719 mmHg 80%
    05:00 +26°C° 0,6 mm 4 m/s 720 mmHg 80%
    06:00 +26°C° 0,6 mm 5 m/s 720 mmHg 80%
    07:00 +27°C° 0,6 mm 5 m/s 720 mmHg 81%
    08:00 +27°C° 0,9 mm 5 m/s 721 mmHg 79%
    09:00 +27°C° 0,9 mm 5 m/s 721 mmHg 78%
    10:00 +28°C° 0,9 mm 5 m/s 721 mmHg 77%
    11:00 +28°C° 1 mm 5 m/s 721 mmHg 75%
    12:00 +29°C° 1 mm 5 m/s 720 mmHg 73%
    13:00 +29°C° 1 mm 5 m/s 720 mmHg 71%
    14:00 +29°C° 1,2 mm 5 m/s 720 mmHg 72%
    15:00 +29°C° 1,2 mm 4 m/s 720 mmHg 72%
    16:00 +29°C° 1,2 mm 4 m/s 720 mmHg 73%
    17:00 +28°C° 1,7 mm 4 m/s 720 mmHg 75%
    18:00 +28°C° 1,7 mm 3 m/s 720 mmHg 77%
    19:00 +27°C° 1,7 mm 3 m/s 720 mmHg 79%
    20:00 +27°C° 0,9 mm 3 m/s 721 mmHg 79%
    21:00 +27°C° 0,9 mm 3 m/s 721 mmHg 80%
    22:00 +27°C° 0,9 mm 3 m/s 721 mmHg 80%
    23:00 +27°C° 0,1 mm 3 m/s 721 mmHg 81%

    23 Fevereiro, Sexta-feira

    Tempo Temperatura Precipitação Vento Pressão Humidade
    00:00 +27°C° 0,1 mm 3 m/s 721 mmHg 81%
    01:00 +26°C° 0,1 mm 3 m/s 720 mmHg 82%
    02:00 +26°C° 0,3 mm 3 m/s 720 mmHg 82%
    03:00 +26°C° 0,3 mm 3 m/s 720 mmHg 82%
    04:00 +26°C° 0,3 mm 3 m/s 720 mmHg 82%
    05:00 +26°C° 0,8 mm 3 m/s 720 mmHg 82%
    06:00 +26°C° 0,8 mm 3 m/s 721 mmHg 81%
    07:00 +26°C° 0,8 mm 3 m/s 721 mmHg 81%
    08:00 +27°C° 0,2 mm 4 m/s 721 mmHg 78%
    09:00 +28°C° 0,2 mm 4 m/s 721 mmHg 75%
    10:00 +29°C° 0,2 mm 4 m/s 721 mmHg 72%
    11:00 +29°C° 0,5 mm 4 m/s 721 mmHg 71%
    12:00 +29°C° 0,5 mm 4 m/s 721 mmHg 69%
    13:00 +30°C° 0,5 mm 4 m/s 721 mmHg 68%
    14:00 +29°C° 0,6 mm 4 m/s 720 mmHg 69%
    15:00 +29°C° 0,6 mm 4 m/s 720 mmHg 70%
    16:00 +29°C° 0,6 mm 3 m/s 720 mmHg 71%
    17:00 +29°C° 0,5 mm 3 m/s 720 mmHg 74%
    18:00 +28°C° 0,5 mm 3 m/s 721 mmHg 76%
    19:00 +27°C° 0,5 mm 3 m/s 721 mmHg 79%
    20:00 +27°C° 0,2 mm 3 m/s 721 mmHg 80%
    21:00 +27°C° 0,2 mm 3 m/s 721 mmHg 81%
    22:00 +27°C° 0,2 mm 3 m/s 722 mmHg 82%
    23:00 +27°C° 0,9 mm 3 m/s 721 mmHg 82%
    Mostrar mais